Regional Weather Roundup
Issued by NWS

Home | Current Version | Previous Version | Graphics & Text | Print | Product List | Glossary On
Versions: 1 2 3 4 5 6 7 8 9 10 11 12 13 14 15 16 17 18 19 20 21 22 23 24 25 26 27 28 29 30 31 32 33 34 35 36 37 38 39 40 41 42 43 44 45 46 47 48 49 50
709
ASUS44 KJAN 261603
RWRMS

MISSISSIPPI HOURLY WEATHER ROUNDUP
NATIONAL WEATHER SERVICE JACKSON MS
1100 AM CDT TUE AUG 26 2014

NOTE: "FAIR: INDICATES FEW OR NO CLOUDS BELOW 12,000 FEET WITH NO
SIGNIFICANT WEATHER AND/OR OBSTRUCTIONS TO VISIBILITY.

MSZ001>002-007>008-010>013-018>021-025>028-034>036-261700-
NORTHWEST MISSISSIPPI

CITY           SKY/WX    TMP DP  RH WIND       PRES   REMARKS
CLARKSDALE     FAIR      86  72  62 CALM      30.12S HX  92
CLEVELAND      CLOUDY    83  71  66 SE3       30.09F
GREENWOOD      MOSUNNY   85  65  51 SE3       30.10S
GREENVILLE     PTSUNNY   86  67  52 E8        30.09S
GRENADA        CLOUDY    82  63  51 E5        30.12S
OXFORD         FAIR      82  63  51 S3        30.15S
TUNICA         SUNNY     86  68  54 S6        30.11F
$$

MSZ003>006-009-014>017-022>024-029>033-037>039-261700-
NORTHEAST MISSISSIPPI

CITY           SKY/WX    TMP DP  RH WIND       PRES   REMARKS
BELMONT        CLOUDY    79  63  57 SE6       30.15S
COLUMBUS AFB   SUNNY     84  61  45 VRB7      30.12F
CORINTH        FAIR      82  64  54 VRB5      30.14F
GOLDN TRIANGLE MOSUNNY   82  61  47 SE7       30.13S
STARKVILLE     FAIR      82  59  44 SE6       30.12S
TUPELO         CLOUDY    81  62  52 S7        30.13S
$$

MSZ040-058-261700-
CENTRAL MISSISSIPPI

CITY           SKY/WX    TMP DP  RH WIND       PRES   REMARKS
JACKSON INTL   MOSUNNY   86  60  41 E9        30.08
JACKSON HAWKNS SUNNY     85  62  46 VRB5      30.08S
MERIDIAN KEY   SUNNY     84  61  45 SE10      30.09S
MERIDIAN NAS   MOSUNNY   83  61  47 SE7       30.11R
RAYMOND        FAIR      84  79  84 E5        30.08S HX  96
VICKSBURG      MOSUNNY   84  68  58 E8        30.07R
$$

MSZ059>079-261700-
SOUTH MISSISSIPPI

CITY           SKY/WX    TMP DP  RH WIND       PRES   REMARKS
BROOKHAVEN     FAIR      82  66  57 NE5       30.08S
COLUMBIA       FAIR      84  68  58 MISG      30.05R
HATTIESBURG    SUNNY     85  64  49 NE10      30.06S
MCCOMB         SUNNY     84  66  54 VRB6      30.05S
NATCHEZ        PTSUNNY   82  72  69 SE8       30.06S
PINE BELT      SUNNY     84  63  48 NE9       30.08S
$$

MSZ080>082-261700-
COASTAL MISSISSIPPI

CITY           SKY/WX    TMP DP  RH WIND       PRES   REMARKS
BAY ST LOUIS   SUNNY    N/A N/A N/A E7        30.02R
BILOXI         SUNNY     87  69  54 VRB7      30.02R HX  92
PASCAGOULA     MOSUNNY   86  69  56 E10       30.02R HX  90
GULFPORT       SUNNY     86  69  56 E12       30.01S HX  90
$$



USA.gov is the U.S. government's official web portal to all federal, state and local government web resources and services.